Regional Weather Roundup
Issued by NWS Goodland, KS

Home | Current Version | Previous Version | Graphics & Text | Print | Product List | Glossary On
Versions: 1 2 3 4 5 6 7 8 9 10 11 12 13 14 15 16 17 18 19 20 21 22 23 24 25 26 27 28 29 30 31 32 33 34 35 36 37 38 39 40 41 42 43 44 45 46 47 48 49 50
000
ASUS43 KGLD 240508
RWRGLD

GOODLAND FORECAST AREA HOURLY WEATHER ROUNDUP
NATIONAL WEATHER SERVICE GOODLAND KS
1000 PM MST THU FEB 23 2017

...OFFICIAL OBSERVATIONS...

CITY           SKY/WX    TMP DP  RH WIND       PRES   REMARKS
GOODLAND KS    CLOUDY    24  22  91 N25       29.76S WCI   8
HILL CITY KS   CLOUDY    32  27  81 N15       29.75R
IMPERIAL NEB   FLURRIES  24  20  84 MISG      29.82R
MCCOOK NEB     CLOUDY    27  24  89 N17       29.77S WCI  14
AKRON CO       CLOUDY    20  17  88 N13       29.81S WCI   7
BURLINGTON CO  CLOUDY    24  19  81 N18G28    29.77S WCI  10
LIMON CO       CLOUDY    18  15  88 N23G33    29.78S WCI   0
$$

...UNOFFICIAL OBSERVATIONS...

CITY           SKY/WX    TMP DP  RH WIND       PRES   REMARKS
LENORA KS        N/A     29  32 100 N12         N/A  WCI  19
NORTON KS      CLOUDY    28  23  80 NW17      29.73R WCI  16
SHARON SPRINGS   N/A     26  21  80 N22G31      N/A  WCI  12
TRENTON NEB      N/A     25  32 100 CALM        N/A
KIT CARSON CO    N/A     23  17  77 MISG        N/A
YUMA CO        FLURRIES  21  18  86 NW6       29.82S
$$




USA.gov is the U.S. government's official web portal to all federal, state and local government web resources and services.